Regional Weather Roundup
Issued by NWS Cleveland, OH

Home | Current Version | Previous Version | Graphics & Text | Print | Product List | Glossary On
Versions: 1 2 3 4 5 6 7 8 9 10 11 12 13 14 15 16 17 18 19 20 21 22 23 24 25 26 27 28 29 30 31 32 33 34 35 36 37 38 39 40 41 42 43 44 45 46 47 48 49 50
000
ASUS41 KCLE 240902
RWRCLE
OHIO REGIONAL WEATHER ROUNDUP
NATIONAL WEATHER SERVICE CLEVELAND, OH
500 AM EDT MON JUL 24 2017

NOTE: "FAIR" INDICATES FEW OR NO CLOUDS BELOW 12,000 FEET WITH NO
SIGNIFICANT WEATHER AND/OR OBSTRUCTIONS TO VISIBILITY.

OHZ001>008-015>018-024>027-034-035-043-044-241000-
   NORTHWEST OHIO

CITY           SKY/WX    TMP DP  RH WIND       PRES   REMARKS
DEFIANCE       PTCLDY   N/A N/A N/A NW5       29.83R
FINDLAY        CLEAR     69  64  84 W5        29.81R
TOLEDO EXPRESS CLOUDY    67  66  97 NW5       29.81R
TOLEDO EXEC    CLEAR     69  66  90 NW7       29.81R
LIMA           CLEAR     67  66  97 W3        29.83S
$$

OHZ009>014-019>023-028>033-038-089-241000-
   NORTHEAST OHIO

CITY           SKY/WX    TMP DP  RH WIND       PRES   REMARKS
CLE-HOPKINS    MOCLDY    69  65  86 SW6       29.81R
CLE-LAKEFRONT  PTCLDY    71  66  84 SW9       29.77S
CUY CO. ARPT   NOT AVBL
LORAIN-ELYRIA  MOCLDY    66  61  84 W5        29.80S
ASHTABULA      CLEAR     67  67 100 W5        29.79R
AKRON-CANTON   PTCLDY    67  63  87 W6        29.82R
WOOSTER        CLEAR     64  63  96 CALM      29.82R
MANSFIELD      CLEAR     66  65  96 SW5       29.82F
YOUNGSTOWN     PTCLDY    67  65  93 SW6       29.80R
$$

OHZ042-051>053-060>062-070>072-077>081-241000-
  SOUTHWEST OHIO

CITY           SKY/WX    TMP DP  RH WIND       PRES   REMARKS
CINC-COVINGTON PTCLDY    69  69 100 SW5       29.86S
CINC-LUNKEN    PTCLDY    68  68 100 CALM      29.86S
HAMILTON       MOCLDY    68  68 100 CALM      29.86S
DAYTON         CLEAR     69  67  93 SW6       29.85S
WRIGHT-PAT AFB CLEAR     68  68 100 SE3       29.84R
DAYTON GENERAL PTCLDY    69  67  93 S5        29.84S
WILMINGTON     CLEAR     67  67 100 SW6       29.85S
$$

OHZ036-037-039>041-045>050-054>059-063>069-073>076-082>088-241000-
  CENTRAL AND SOUTHEAST OHIO

CITY           SKY/WX    TMP DP  RH WIND       PRES   REMARKS
COLUMBUS       CLEAR     67  67 100 S3        29.83R
OSU AIRPORT    CLEAR     66  66 100 S3        29.83R
BOLTON FIELD   CLEAR     65  65 100 SW5       29.84S
RICKENBACK AFB CLEAR     65  65 100 SW6       29.83R
NEWARK         CLEAR     66  65  96 S3        29.82S FOG
MARION         CLEAR     66  64  93 CALM      29.82S
LANCASTER      CLEAR     55  32  41 S3        29.84S
ZANESVILLE     FOG       66  64  93 CALM      29.84R VSB 1/4
NEW PHILLY     NOT AVBL
$$



USA.gov is the U.S. government's official web portal to all federal, state and local government web resources and services.